Regional Weather Roundup
Issued by NWS

Home | Current Version | Previous Version | Graphics & Text | Print | Product List | Glossary Off
Versions: 1 2 3 4 5 6 7 8 9 10 11 12 13 14 15 16 17 18 19 20 21 22 23 24 25 26 27 28 29 30 31 32 33 34 35 36 37 38 39 40 41 42 43 44 45 46 47 48 49 50

952
ASUS43 KDMX 052003
RWRIA

WEATHER ROUNDUP FOR IOWA
NATIONAL WEATHER SERVICE DES MOINES IA
200 PM CST FRI FEB 05 2016

NOTE: "FAIR" INDICATES FEW OR NO CLOUDS BELOW 12,000 FEET WITH NO
SIGNIFICANT WEATHER AND/OR OBSTRUCTIONS TO VISIBILITY.

* - THESE STATIONS ARE NOT NWS STATIONS...THUS NOT UNDER NWS
QUALITY CONTROL.  THEY ALSO DO NOT REPORT WEATHER SUCH
AS PRECIPITATION OR FOG.

IAZ001>003-012>014-020>022-031>034-043>046-052100-
   NORTHWEST IOWA

CITY           SKY/WX    TMP DP  RH WIND       PRES   REMARKS
CARROLL *      MIX PCPN  27  25  93 S16       30.26F VSB 1   WCI  14
CHEROKEE *     LGT SNOW  28  25  86 S13       30.23F WCI  18
DENISON *      LGT SNOW  27  25  93 S14       30.23F VSB 3/4 WCI  15
LE MARS *      CLOUDY    28  27  93 S18       30.20F WCI  16
ORANGE CITY *  CLOUDY    27  25  93 S18       30.17F FOG     WCI  13
SHELDON *      CLOUDY    27  25  93 S21G28    30.16F WCI  13
SIOUX CITY     CLOUDY    30  24  78 S10       30.21F WCI  21
SPENCER        LGT SNOW  26  21  81 S15       30.20F WCI  14
STORM LAKE *   SUNNY     27  27 100 S17       30.22F FOG     WCI  14
$$

IAZ055>058-069>071-079>083-090>094-052100-
   SOUTHWEST IOWA

CITY           SKY/WX    TMP DP  RH WIND       PRES   REMARKS
ATLANTIC *     SUNNY     30  23  74 S13       30.28F HAZE    WCI  20
AUDUBON *      LGT SNOW  28  23  80 S8        30.27F WCI  20
CLARINDA *     CLOUDY    34  25  69 S13       30.32F WCI  25
COUNCIL BLFS * MIX PCPN  28  27  93 S16       30.25F VSB 3/4 WCI  17
CRESTON *      CLOUDY    30  21  69 S10       30.30F WCI  21
HARLAN  *      CLOUDY    28  25  86 S15       30.28F FOG     WCI  17
LAMONI         CLOUDY    31  20  63 S5        30.31F WCI  26
RED OAK *      CLOUDY    32  27  80 S13       30.29F WCI  22
SHENANDOAH *   MIX PCPN  32  28  86 S13       30.30F WCI  22
$$

IAZ047>049-059>061-072>074-084-052100-
   CENTRAL IOWA

CITY           SKY/WX    TMP DP  RH WIND       PRES   REMARKS
AMES           CLOUDY    26  18  71 SE9       30.31F WCI  17
ANKENY *       MOSUNNY   28  19  69 S9        30.33F WCI  20
BOONE *        CLOUDY    25  19  80 SE9       30.28F WCI  15
CHARITON *     CLOUDY    30  19  64 S7        30.32F WCI  23
DES MOINES     CLOUDY    29  16  58 S10       30.32F WCI  20
GRINNELL*      CLOUDY    26  20  76 S5        30.34F WCI  21
KNOXVILLE *    SUNNY     28  18  64 SE7       30.33F WCI  21
MARSHALLTOWN   CLOUDY    25  16  68 S7        30.32F WCI  17
NEWTON *       MOSUNNY   25  21  86 SE7       30.33F WCI  17
PELLA *        CLOUDY    28  19  69 S3        30.36F
$$

IAZ004>006-015-016-023>025-035-036-052100-
   NORTH CENTRAL IOWA

CITY           SKY/WX    TMP DP  RH WIND       PRES   REMARKS
ALGONA *       MOSUNNY   25  19  80 S21       30.24F WCI  10
CLARION *      CLOUDY    21  16  79 S15       30.28F WCI   8
ESTHERVILLE    LGT SNOW  22  19  89 S15       30.21F FOG     WCI   9
FORT DODGE *   CLOUDY    25  16  68 S12       30.28F WCI  14
MASON CITY     CLOUDY    21  16  81 S14       30.29F WCI   8
FOREST CITY *  PTSUNNY   21  18  86 S12       30.26F WCI   9
WEBSTER CITY * CLOUDY    23  19  86 S10       30.27F WCI  12
IOWA FALLS *   CLOUDY    25  19  77 S9        30.31F WCI  15
$$

IAZ007>011-017>019-026>030-037>042-050>054-066-052100-
   NORTHEAST IOWA

CITY           SKY/WX    TMP DP  RH WIND       PRES   REMARKS
CEDAR RAPIDS   CLOUDY    28  20  71 SW5       30.35F WCI  23
CHARLES CITY * CLOUDY    19  16  86 S12       30.31F WCI   7
CLINTON *      CLOUDY    31  22  69 W9        30.38S WCI  23
DECORAH *      CLOUDY    23  14  68 VRB5      30.31F WCI  17
DUBUQUE        CLOUDY    26  19  74 SW9       30.34F WCI  17
MONTICELLO *   CLOUDY    27  19  74 W5        30.36F WCI  21
OELWEIN *      CLOUDY    21  16  79 SW5       30.34F WCI  15
WATERLOO       CLOUDY    22  14  71 S7        30.34F WCI  13
$$

IAZ064-065-067-068-078-052100-
   EAST CENTRAL IOWA

CITY           SKY/WX    TMP DP  RH WIND       PRES   REMARKS
DAVENPORT      MOSUNNY   30  20  66 W8        30.38S WCI  22
IOWA CITY      PTSUNNY   29  20  69 SW5       30.39F WCI  24
MT. PLEASANT * CLOUDY    33  22  63 CALM      30.38F
MUSCATINE *    PTSUNNY   30  19  64 CALM      30.39F
QUAD CITIES    CLOUDY    32  19  58 W6        30.38S WCI  26
$$

IAZ062-063-075>077-085>089-095>099-052100-
   SOUTHEAST IOWA

CITY           SKY/WX    TMP DP  RH WIND       PRES   REMARKS
BURLINGTON     CLOUDY    31  20  63 CALM      30.37F
FAIRFIELD *    CLOUDY    28  18  64 S5        30.37F WCI  23
FORT MADISON * PTSUNNY   30  21  69 CALM      30.38F
KEOKUK *       CLOUDY    32  19  59 CALM      30.38F
OSKALOOSA *    CLOUDY    27  19  74 CALM      30.36F
OTTUMWA        PTSUNNY   28  18  66 S6        30.35F WCI  22
WASHINGTON *   SUNNY     28  21  74 W5        30.39F WCI  23
$$

ABBREVIATIONS USED IN REMARKS
   TC - TEMPERATURES IN CELSIUS
  WCI - WIND CHILL INDEX
   HX - HEAT INDEX
  VSB - VISIBILITY
$$





USA.gov is the U.S. government's official web portal to all federal, state and local government web resources and services.